Location: Vancouver
(49.2827°N, 123.1207°W)
Time: 01:42:28
(UTC-07:00)

Envisat - Pass Details

Date: 23 May 2024
Orbit: 762 x 764 km, 98.3° (Epoch: 19 June)

Event Time Altitude Azimuth Distance (km) Brightness Sun altitude
Rises 02:53:24 0° 33° (NNE) 3,238 8.0 -16.3°
Reaches altitude 10° 02:58:02 10° 72° (ENE) 2,303 6.1 -15.9°
Maximum altitude 02:59:03 11° 84° (E) 2,263 5.9 -15.9°
Drops below altitude 10° 03:00:04 10° 96° (E) 2,300 5.7 -15.8°
Sets 03:04:40 0° 135° (SE) 3,217 6.1 -15.4°
